[[{"header":{"parameterUnit":"m.s-1","parameterCategory":2,"la1":30.2991,"la2":30.254,"lo1":-89.0895,"lo2":-89.0444,"dy":0.0017,"dx":0.0017,"nx":28,"ny":28,"refTime":"2025-08-22T21:00:00:Z","depth":"0","parameterNumber":2,"parameterNumberName":"U-component_of_CURRENTS"},"data":[0,0,0,0,0,0,0,0,0,0,0,0,0,0,0,0,0,0,0,0,0,0,0,0,0,0,0,0,0,0,0,0,0,0,0,0,0,0,0,0,0,0,0,0,0,0,0,0,0,0,0,0,0,0,0,0,0,0,-0.2157,-0.2157,0,-0.2156,-0.2156,-0.2156,-0.214,-0.214,-0.214,-0.214,-0.2072,-0.2071,-0.2069,0,0,0,0,0,0,0,0,0,0,0,0,0,-0.2076,-0.2077,-0.2157,-0.2157,-0.2157,-0.2156,-0.2156,-0.2156,-0.214,-0.214,-0.214,-0.214,-0.2073,-0.2071,-0.2069,0,0,0,0,0,0,0,0,0,0,0,0,0,-0.2093,-0.2078,-0.2157,-0.2153,-0.2152,-0.2157,-0.2156,-0.2156,-0.214,-0.214,-0.214,-0.214,-0.2074,-0.2071,-0.2068,-0.2053,0,0,-0.206,-0.2059,0,0,0,0,0,0,0,0,-0.2092,-0.2095,-0.2153,-0.2153,-0.2153,-0.2152,-0.2103,-0.2119,-0.214,-0.214,-0.214,-0.214,-0.2095,-0.2091,-0.2086,-0.205,-0.2047,-0.206,-0.2058,-0.2057,-0.2057,0,0,0,0,0,0,0,-0.2091,-0.2095,-0.2152,-0.2153,-0.2153,-0.2128,-0.213,-0.2106,-0.2114,-0.214,-0.214,-0.2147,-0.2094,-0.2089,-0.2084,-0.2046,-0.206,-0.2058,-0.2056,-0.2055,-0.2037,-0.2038,0,0,0,0,0,0,-0.2103,-0.2095,-0.2152,-0.2153,-0.2126,-0.213,-0.2132,-0.2149,-0.2115,-0.2112,-0.2147,-0.2146,-0.2093,-0.2087,-0.2082,-0.2093,-0.2057,-0.2055,-0.2053,-0.2035,-0.2037,-0.2038,0,0,0,0,0,0,-0.2102,-0.2109,-0.2153,-0.2126,-0.213,-0.2132,-0.215,-0.2149,-0.2147,-0.2122,-0.2116,-0.2147,-0.2093,-0.2085,-0.2076,-0.2089,-0.2054,-0.2051,-0.2034,-0.2036,-0.2037,-0.2095,0,0,0,0,0,0,-0.21,-0.2109,-0.2115,-0.2127,-0.2133,-0.2158,-0.2151,-0.2149,-0.2153,-0.2151,-0.212,-0.2113,-0.2092,-0.208,-0.2073,-0.2085,-0.2049,-0.2033,-0.2035,-0.2037,-0.2092,-0.2099,-0.2104,0,0,0,0,0,-0.2097,-0.2104,-0.2115,-0.2122,-0.2145,-0.2159,-0.2158,-0.2156,-0.2153,-0.2152,-0.2142,-0.2114,-0.2088,-0.2079,-0.207,-0.2081,-0.2032,-0.2034,-0.2037,-0.2089,-0.2097,-0.2104,0,0,0,0,0,0,-0.2054,-0.2104,-0.2116,-0.2134,-0.215,-0.2158,-0.2153,-0.2159,-0.215,-0.2146,-0.2123,-0.2116,-0.2112,-0.2092,-0.2082,-0.2085,-0.2057,-0.2058,-0.21,-0.2108,-0.2114,-0.2122,-0.2047,0,0,0,0,0,-0.2056,-0.208,-0.2116,-0.2124,-0.2137,-0.2147,-0.2149,-0.2156,-0.2156,-0.2152,-0.2135,-0.2122,-0.2115,-0.2108,-0.2091,-0.2088,-0.209,-0.2093,-0.21,-0.2105,-0.2108,-0.2139,-0.2148,-0.2046,-0.2046,-0.2046,0,0,-0.2037,-0.2068,-0.2079,-0.2118,-0.2126,-0.2151,-0.2146,-0.2156,-0.2174,-0.2144,-0.2149,-0.2136,-0.2119,-0.2121,-0.2118,-0.2106,-0.2136,-0.2108,-0.2113,-0.2112,-0.2142,-0.2152,-0.2161,-0.2048,-0.2047,-0.2047,0,0,-0.2022,-0.2047,-0.207,-0.2094,-0.2126,-0.214,-0.2149,-0.2168,-0.2173,-0.2182,-0.2173,-0.2181,-0.2153,-0.2162,-0.216,-0.2192,-0.2166,-0.2176,-0.2213,-0.2244,-0.2253,-0.2261,-0.2281,-0.229,-0.2182,-0.2182,-0.2182,0,-0.1995,-0.2039,-0.207,-0.2103,-0.2124,-0.2142,-0.2169,-0.218,-0.2192,-0.2207,-0.2189,-0.2199,-0.2181,-0.2213,-0.222,-0.2207,-0.2209,-0.2185,-0.2253,-0.2261,-0.2267,-0.2287,-0.2296,-0.2185,-0.2185,-0.2184,-0.2184,0,-0.201,-0.2044,-0.2054,-0.2114,-0.2138,-0.2157,-0.2197,-0.2215,-0.2223,-0.2242,-0.2268,-0.2259,-0.227,-0.2267,-0.2245,-0.2289,-0.227,-0.2256,-0.2235,-0.2281,-0.2299,-0.2307,-0.2189,-0.2188,-0.2187,-0.2187,0,0,-0.1945,-0.2048,-0.2048,-0.2088,-0.2149,-0.2171,-0.2212,-0.226,-0.2295,-0.2305,-0.2346,-0.2349,-0.235,-0.2348,-0.2336,-0.2358,-0.2406,-0.232,-0.2321,-0.2342,-0.2463,-0.2273,-0.2264,-0.2397,-0.2398,-0.24,-0.2458,0,-0.1941,-0.2008,-0.2063,-0.2116,-0.2154,-0.2205,-0.2248,-0.2296,-0.2325,-0.2365,-0.2385,-0.2406,-0.238,-0.2384,-0.2408,-0.2396,-0.2429,-0.2391,-0.2413,-0.2414,-0.224,-0.2268,-0.2155,-0.218,-0.2466,-0.2467,-0.2468,0,-0.1935,-0.1987,-0.2045,-0.2146,-0.2166,-0.2199,-0.228,-0.2324,-0.2395,-0.2419,-0.2461,-0.2467,-0.2503,-0.2469,-0.2508,-0.2478,-0.2478,-0.2475,-0.2477,-0.2283,-0.2239,-0.2178,-0.2185,-0.2176,-0.2481,-0.248,-0.2479,0,-0.1877,-0.1972,-0.202,-0.2051,-0.2162,-0.2195,-0.2247,-0.233,-0.2376,-0.2449,-0.2479,-0.2531,-0.2541,-0.2563,-0.2527,-0.2529,-0.255,-0.2563,-0.241,-0.2398,-0.2295,-0.2267,-0.2291,-0.2612,-0.2612,-0.2612,-0.2612,0,-0.1854,-0.1888,-0.1996,-0.202,-0.208,-0.2168,-0.2233,-0.2296,-0.2385,-0.2437,-0.2494,-0.2519,-0.2559,-0.2562,-0.2554,-0.2473,-0.2579,-0.2413,-0.2395,-0.2308,-0.2282,-0.226,-0.2284,-0.2614,-0.2614,-0.2613,-0.2613,0,-0.1785,-0.1854,-0.1912,-0.2021,-0.2055,-0.2093,-0.2212,-0.2268,-0.2353,-0.2418,-0.2438,-0.2514,-0.2498,-0.2507,-0.2527,-0.2475,-0.2383,-0.2395,-0.2268,-0.2229,-0.2038,-0.2068,-0.2042,-0.1984,-0.2256,-0.2251,-0.2248,0,-0.1763,-0.1786,-0.1888,-0.1918,-0.1963,-0.2039,-0.2101,-0.2225,-0.2287,-0.2395,-0.2418,-0.2431,-0.2386,-0.2324,-0.2254,-0.2196,-0.2229,-0.2061,-0.2035,-0.1996,-0.2022,-0.2049,-0.2007,-0.1956,-0.195,-0.1945,-0.1941,0,-0.1707,-0.1734,-0.1779,-0.1841,-0.1898,-0.1973,-0.2064,-0.2097,-0.2236,-0.2257,-0.2256,-0.2218,-0.2171,-0.2023,-0.1936,-0.19,-0.1978,-0.1954,-0.1981,-0.1821,-0.1794,-0.1738,-0.1957,-0.1899,-0.1903,-0.1906,-0.1909,-0.191,-0.1642,-0.1653,-0.17,-0.1752,-0.1818,-0.1859,-0.1852,-0.1938,-0.1954,-0.1953,-0.2027,-0.1929,-0.1874,-0.1702,-0.1654,-0.1546,-0.1644,-0.1528,-0.1585,-0.163,-0.1504,-0.1582,-0.1439,-0.1441,-0.1442,-0.1444,-0.1445,0,-0.1548,-0.157,-0.1615,-0.1655,-0.1676,-0.1745,-0.1796,-0.1751,-0.1678,-0.1718,-0.1652,-0.1578,-0.1428,-0.1419,-0.1317,-0.1238,-0.1251,-0.1227,-0.1314,-0.1302,-0.1436,-0.1346,-0.1092,-0.1092,-0.1092,-0.1092,-0.1092,-0.1092,-0.1493,-0.1483,-0.1512,-0.1494,-0.152,-0.1462,-0.1438,-0.1372,-0.1357,-0.1248,-0.1232,-0.1273,-0.1281,-0.1327,-0.1215,-0.1143,-0.1164,-0.1082,-0.1143,-0.1313,-0.135,-0.1384,-0.1305,-0.1047,-0.1047,-0.0963,-0.0963,-0.0963]},{"header":{"parameterUnit":"m.s-1","parameterCategory":2,"la1":30.2991,"la2":30.254,"lo1":-89.0895,"lo2":-89.0444,"dy":0.0017,"dx":0.0017,"nx":28,"ny":28,"refTime":"2025-08-22T21:00:00:Z","depth":"0","parameterNumber":3,"parameterNumberName":"V-component_of_CURRENTS"},"data":[0,0,0,0,0,0,0,0,0,0,0,0,0,0,0,0,0,0,0,0,0,0,0,0,0,0,0,0,0,0,0,0,0,0,0,0,0,0,0,0,0,0,0,0,0,0,0,0,0,0,0,0,0,0,0,0,0,0,-0.016,-0.016,0,-0.0131,-0.0131,-0.013,-0.0078,-0.0078,-0.0077,-0.0076,0.0005,0.0006,0.0007,0,0,0,0,0,0,0,0,0,0,0,0,0,-0.0198,-0.0198,-0.016,-0.016,-0.0159,-0.0131,-0.0131,-0.013,-0.0079,-0.0077,-0.0076,-0.0075,0.0004,0.0006,0.0007,0,0,0,0,0,0,0,0,0,0,0,0,0,-0.0176,-0.0197,-0.016,-0.0131,-0.0128,-0.0131,-0.0131,-0.013,-0.0079,-0.0077,-0.0076,-0.0075,0.0004,0.0006,0.0007,-0.0009,0,0,0.0013,0.0014,0,0,0,0,0,0,0,0,-0.0177,-0.0175,-0.0135,-0.0133,-0.0129,-0.0108,-0.0115,-0.0087,-0.0079,-0.0097,-0.0076,-0.0074,-0.003,-0.0025,-0.0022,-0.0005,-0.0002,0.0013,0.0015,0.0015,0.0016,0,0,0,0,0,0,0,-0.0179,-0.0176,-0.0148,-0.0135,-0.0131,-0.0129,-0.0124,-0.011,-0.007,-0.0095,-0.0091,-0.009,-0.0027,-0.0024,-0.002,-0.0,0.0013,0.0015,0.0016,0.0017,0.002,0.0019,0,0,0,0,0,0,-0.0184,-0.0177,-0.0149,-0.0147,-0.0151,-0.0129,-0.0123,-0.0115,-0.0071,-0.0064,-0.0091,-0.0087,-0.0028,-0.0022,-0.0017,-0.0027,0.0015,0.0017,0.0018,0.0021,0.0019,0.0018,0,0,0,0,0,0,-0.0185,-0.0181,-0.015,-0.0162,-0.0158,-0.013,-0.0121,-0.0116,-0.0107,-0.0069,-0.006,-0.0087,-0.0027,-0.002,-0.001,-0.0023,0.0018,0.002,0.0022,0.002,0.0019,-0.005,0,0,0,0,0,0,-0.0186,-0.0182,-0.0185,-0.0163,-0.0158,-0.0159,-0.0123,-0.0116,-0.0109,-0.0104,-0.0063,-0.0054,-0.0025,-0.0013,-0.0008,-0.002,0.0021,0.0023,0.0021,0.0019,-0.0047,-0.0054,-0.0061,0,0,0,0,0,-0.0187,-0.0202,-0.0185,-0.0182,-0.016,-0.016,-0.0158,-0.0133,-0.011,-0.0117,-0.0089,-0.0055,-0.0022,-0.0013,-0.0006,-0.0018,0.0024,0.0022,0.002,-0.0044,-0.0053,-0.006,0,0,0,0,0,0,-0.0239,-0.0197,-0.0178,-0.0184,-0.0174,-0.0152,-0.0159,-0.0138,-0.0123,-0.0114,-0.0071,-0.0062,-0.0057,-0.0033,-0.0024,-0.0024,0.0007,0.0006,-0.0043,-0.0051,-0.0058,-0.0055,0.0023,0,0,0,0,0,-0.0248,-0.0234,-0.0208,-0.0216,-0.021,-0.0184,-0.0182,-0.0164,-0.0145,-0.0136,-0.0108,-0.0081,-0.0066,-0.0054,-0.0037,-0.004,-0.0003,-0.0043,-0.005,-0.0056,-0.0051,-0.0031,-0.0036,0.001,0.001,0.001,0,0,-0.0274,-0.0248,-0.0244,-0.0224,-0.0212,-0.0217,-0.0179,-0.0181,-0.0183,-0.0131,-0.0129,-0.0104,-0.0072,-0.0074,-0.007,-0.0053,-0.0048,-0.0059,-0.0065,-0.0056,-0.0034,-0.0039,-0.0042,0.0009,0.0009,0.0009,0,0,-0.0315,-0.0292,-0.0291,-0.0283,-0.0264,-0.025,-0.0251,-0.0228,-0.0215,-0.0214,-0.0176,-0.016,-0.0139,-0.0118,-0.0104,-0.014,-0.0086,-0.0138,-0.0168,-0.015,-0.0153,-0.0155,-0.0101,-0.0098,-0.014,-0.014,-0.014,0,-0.0353,-0.0336,-0.0299,-0.0301,-0.0302,-0.0266,-0.028,-0.0269,-0.0248,-0.024,-0.0221,-0.0187,-0.0159,-0.0153,-0.0163,-0.0154,-0.0124,-0.0139,-0.0158,-0.016,-0.0161,-0.0104,-0.01,-0.0144,-0.0143,-0.0143,-0.0142,0,-0.038,-0.0377,-0.0384,-0.0362,-0.0364,-0.0373,-0.035,-0.0348,-0.0326,-0.0306,-0.0294,-0.0259,-0.0233,-0.0229,-0.0204,-0.0204,-0.0172,-0.017,-0.0136,-0.017,-0.0108,-0.0102,-0.0149,-0.0148,-0.0146,-0.0146,0,0,-0.0449,-0.0408,-0.0412,-0.0411,-0.0393,-0.0401,-0.0407,-0.04,-0.04,-0.0376,-0.0371,-0.0344,-0.0311,-0.0293,-0.0262,-0.0244,-0.0222,-0.0215,-0.0212,-0.0157,-0.0156,-0.0076,-0.0061,-0.023,-0.0229,-0.0229,-0.0104,0,-0.0486,-0.0489,-0.0462,-0.049,-0.0495,-0.047,-0.0481,-0.0471,-0.0449,-0.0438,-0.0394,-0.0377,-0.034,-0.0326,-0.0305,-0.0249,-0.0213,-0.0254,-0.0133,-0.0129,-0.0052,-0.0055,-0.005,0.0066,-0.0098,-0.0097,-0.0096,0,-0.052,-0.0516,-0.0532,-0.0536,-0.0539,-0.0552,-0.0555,-0.056,-0.0532,-0.0513,-0.0482,-0.0439,-0.04,-0.0369,-0.0277,-0.0307,-0.0232,-0.0182,-0.0176,-0.0072,-0.0038,0.0071,0.0084,0.0204,-0.0087,-0.0088,-0.0088,0,-0.0566,-0.0573,-0.0582,-0.0584,-0.0581,-0.0591,-0.0595,-0.058,-0.0584,-0.0552,-0.0541,-0.0488,-0.045,-0.0377,-0.0253,-0.0272,-0.0139,-0.0152,0.0001,0.0009,0.0055,0.0067,0.0201,-0.0076,-0.0077,-0.0077,-0.0077,0,-0.0607,-0.0624,-0.0602,-0.0611,-0.0646,-0.063,-0.066,-0.0651,-0.0636,-0.0633,-0.0578,-0.0545,-0.0453,-0.0359,-0.0262,-0.0095,-0.0137,0.0011,0.0044,0.0033,0.0041,0.0182,0.023,-0.0072,-0.0073,-0.0074,-0.0075,0,-0.065,-0.0631,-0.0653,-0.0654,-0.0663,-0.0688,-0.0707,-0.0726,-0.0698,-0.0688,-0.0677,-0.0587,-0.0455,-0.0332,-0.0186,-0.0087,0.0136,0.0124,0.0131,0.0163,0.04,0.0442,0.0635,0.0709,0.0297,0.03,0.0302,0,-0.0664,-0.0671,-0.0688,-0.0715,-0.0717,-0.0748,-0.0775,-0.0762,-0.0773,-0.0698,-0.0696,-0.056,-0.0456,-0.0198,-0.0012,0.019,0.0274,0.0336,0.0298,0.0435,0.0505,0.0531,0.0579,0.0338,0.0341,0.0342,0.0344,0,-0.0697,-0.0696,-0.0709,-0.0763,-0.0797,-0.0838,-0.0862,-0.0875,-0.084,-0.0807,-0.0713,-0.0616,-0.0349,-0.0115,0.0165,0.0284,0.0425,0.0385,0.0504,0.0544,0.06,0.0679,0.0261,0.0361,0.036,0.0358,0.0357,0.0357,-0.0717,-0.0739,-0.0756,-0.0814,-0.086,-0.0905,-0.0924,-0.093,-0.0916,-0.0839,-0.0731,-0.056,-0.0209,0.0178,0.0324,0.0636,0.0605,0.071,0.0752,0.0769,0.0834,0.0487,0.0633,0.0633,0.0633,0.0633,0.0633,0,-0.0735,-0.0759,-0.0813,-0.0868,-0.0927,-0.0938,-0.097,-0.0965,-0.0931,-0.0828,-0.0716,-0.0318,0.0026,0.0358,0.0794,0.0973,0.0985,0.1063,0.1072,0.1104,0.0777,0.0773,0.0981,0.0981,0.0981,0.0981,0.0981,0.0981,-0.0743,-0.0784,-0.0815,-0.091,-0.0953,-0.099,-0.0997,-0.097,-0.0898,-0.069,-0.0471,-0.0301,0.0212,0.0864,0.1256,0.129,0.1425,0.1424,0.1518,0.1257,0.1226,0.1196,0.1203,0.1499,0.15,0.1804,0.1807,0.181]}],[{"header":{"parameterUnit":"m.s-1","parameterCategory":2,"la1":30.2991,"la2":30.254,"lo1":-89.0895,"lo2":-89.0444,"dy":0.0017,"dx":0.0017,"nx":28,"ny":28,"refTime":"2025-08-22T21:00:00:Z","depth":"2","parameterNumber":2,"parameterNumberName":"U-component_of_CURRENTS"},"data":[0,0,0,0,0,0,0,0,0,0,0,0,0,0,0,0,0,0,0,0,0,0,0,0,0,0,0,0,0,0,0,0,0,0,0,0,0,0,0,0,0,0,0,0,0,0,0,0,0,0,0,0,0,0,0,0,0,0,-0.1658,-0.1659,0,-0.1744,-0.1745,-0.1747,-0.1732,-0.173,-0.1728,-0.1727,-0.1835,-0.184,-0.1844,0,0,0,0,0,0,0,0,0,0,0,0,0,-0.1596,-0.1597,-0.1658,-0.1659,-0.166,-0.1744,-0.1746,-0.1747,-0.1732,-0.173,-0.1728,-0.1726,-0.1834,-0.1839,-0.1845,0,0,0,0,0,0,0,0,0,0,0,0,0,-0.1648,-0.1597,-0.1658,-0.1662,-0.1663,-0.1744,-0.1746,-0.1747,-0.1732,-0.173,-0.1727,-0.1725,-0.1832,-0.1839,-0.1845,-0.1935,0,0,-0.1865,-0.1868,0,0,0,0,0,0,0,0,-0.1645,-0.165,-0.166,-0.1662,-0.1663,-0.1724,-0.1763,-0.1811,-0.1733,-0.1707,-0.1727,-0.1724,-0.1801,-0.181,-0.1833,-0.194,-0.1945,-0.1866,-0.187,-0.1873,-0.1875,0,0,0,0,0,0,0,-0.1641,-0.1647,-0.1694,-0.1662,-0.1663,-0.1699,-0.1702,-0.1773,-0.1768,-0.1709,-0.1708,-0.1717,-0.1802,-0.1827,-0.1836,-0.1946,-0.1866,-0.1872,-0.1876,-0.1878,-0.2046,-0.2047,0,0,0,0,0,0,-0.1625,-0.1643,-0.1691,-0.1696,-0.1646,-0.1701,-0.1706,-0.1708,-0.1767,-0.1773,-0.1719,-0.1715,-0.1817,-0.1828,-0.184,-0.1901,-0.1873,-0.1879,-0.1883,-0.2046,-0.2047,-0.2047,0,0,0,0,0,0,-0.1623,-0.1628,-0.1687,-0.1671,-0.1681,-0.1704,-0.1707,-0.1711,-0.1738,-0.1774,-0.178,-0.1742,-0.1815,-0.183,-0.1892,-0.1906,-0.1882,-0.1888,-0.2045,-0.2046,-0.2047,-0.2054,0,0,0,0,0,0,-0.1621,-0.1627,-0.164,-0.167,-0.1681,-0.173,-0.171,-0.1714,-0.1746,-0.1743,-0.1797,-0.1803,-0.1815,-0.1882,-0.1898,-0.1915,-0.1893,-0.2045,-0.2046,-0.2047,-0.2053,-0.2055,-0.2057,0,0,0,0,0,-0.1618,-0.1642,-0.164,-0.1647,-0.1692,-0.1731,-0.1741,-0.175,-0.175,-0.1766,-0.1794,-0.1802,-0.1898,-0.1889,-0.1908,-0.1926,-0.2044,-0.2045,-0.2046,-0.2053,-0.2055,-0.2057,0,0,0,0,0,0,-0.1629,-0.1644,-0.1642,-0.167,-0.1694,-0.1727,-0.1753,-0.1766,-0.1806,-0.1807,-0.1833,-0.1843,-0.1884,-0.1917,-0.1906,-0.1973,-0.1965,-0.197,-0.1962,-0.1965,-0.1967,-0.1976,-0.1899,0,0,0,0,0,-0.1637,-0.1654,-0.1672,-0.1698,-0.1707,-0.1736,-0.1761,-0.1769,-0.1802,-0.1817,-0.1849,-0.1883,-0.1909,-0.1945,-0.1968,-0.2046,-0.207,-0.2061,-0.2062,-0.2064,-0.2082,-0.2137,-0.2146,-0.2051,-0.2051,-0.2051,0,0,-0.1639,-0.1662,-0.1664,-0.1702,-0.1722,-0.1746,-0.1745,-0.1783,-0.1806,-0.1828,-0.1877,-0.1891,-0.1924,-0.1969,-0.1994,-0.2003,-0.2098,-0.2065,-0.2066,-0.2084,-0.2139,-0.2149,-0.2157,-0.2051,-0.2051,-0.2051,0,0,-0.1662,-0.1679,-0.1695,-0.1717,-0.1754,-0.1774,-0.1785,-0.1822,-0.1836,-0.1891,-0.1888,-0.1916,-0.1987,-0.1999,-0.2018,-0.2059,-0.2088,-0.2064,-0.2111,-0.2163,-0.2172,-0.218,-0.2201,-0.2212,-0.2086,-0.2086,-0.2086,0,-0.1675,-0.17,-0.1709,-0.1737,-0.176,-0.1783,-0.1809,-0.1836,-0.1889,-0.1918,-0.19,-0.1984,-0.1995,-0.2058,-0.2049,-0.2063,-0.2097,-0.21,-0.2166,-0.2175,-0.2183,-0.2204,-0.2215,-0.2086,-0.2086,-0.2086,-0.2086,0,-0.1705,-0.1728,-0.1746,-0.1778,-0.18,-0.184,-0.1858,-0.1897,-0.1919,-0.1946,-0.2004,-0.2023,-0.208,-0.2071,-0.2075,-0.2142,-0.2145,-0.2144,-0.2163,-0.2194,-0.2213,-0.2224,-0.2087,-0.2087,-0.2087,-0.2087,0,0,-0.172,-0.1762,-0.1766,-0.1784,-0.1833,-0.1852,-0.1897,-0.1952,-0.2004,-0.2032,-0.2108,-0.2114,-0.2137,-0.2159,-0.2169,-0.221,-0.2264,-0.2213,-0.2216,-0.2237,-0.2377,-0.216,-0.2152,-0.2291,-0.2294,-0.2296,-0.236,0,-0.175,-0.1803,-0.1817,-0.1858,-0.188,-0.1914,-0.196,-0.2006,-0.2052,-0.2132,-0.2157,-0.2222,-0.2169,-0.2215,-0.2241,-0.2261,-0.23,-0.2246,-0.2343,-0.2346,-0.2152,-0.2159,-0.2019,-0.2045,-0.2371,-0.2373,-0.2374,0,-0.1767,-0.1806,-0.1854,-0.1905,-0.1919,-0.1972,-0.2058,-0.2093,-0.2193,-0.2228,-0.2295,-0.2331,-0.2389,-0.2349,-0.24,-0.2378,-0.2384,-0.2387,-0.2391,-0.2199,-0.2149,-0.2072,-0.2054,-0.2393,-0.2392,-0.239,-0.2389,0,-0.176,-0.1823,-0.1869,-0.1887,-0.1953,-0.2015,-0.207,-0.2153,-0.2176,-0.232,-0.2364,-0.2447,-0.2487,-0.2521,-0.2473,-0.2479,-0.2517,-0.2529,-0.2341,-0.2326,-0.2227,-0.2196,-0.2587,-0.2587,-0.2587,-0.2587,-0.2586,0,-0.178,-0.1812,-0.1893,-0.1917,-0.1992,-0.2039,-0.2123,-0.2194,-0.2288,-0.2297,-0.2424,-0.2432,-0.2535,-0.2546,-0.253,-0.2424,-0.2556,-0.2345,-0.2328,-0.2217,-0.2186,-0.251,-0.25,-0.2589,-0.2588,-0.2588,-0.2588,0,-0.1751,-0.1802,-0.1846,-0.1947,-0.1986,-0.2039,-0.2127,-0.2165,-0.2279,-0.2307,-0.2355,-0.2449,-0.2425,-0.2469,-0.2509,-0.245,-0.2414,-0.2352,-0.2182,-0.2139,-0.2193,-0.2183,-0.2195,-0.2188,-0.2182,-0.2177,-0.2173,0,-0.1753,-0.1784,-0.1846,-0.1861,-0.1925,-0.2004,-0.204,-0.2151,-0.2159,-0.224,-0.2232,-0.2289,-0.2239,-0.2216,-0.2152,-0.2111,-0.221,-0.1962,-0.192,-0.217,-0.2154,-0.2154,-0.2152,-0.1815,-0.1808,-0.1803,-0.1798,0,-0.1764,-0.1782,-0.1792,-0.1812,-0.1863,-0.1865,-0.1938,-0.1943,-0.2011,-0.205,-0.2033,-0.2038,-0.1988,-0.186,-0.1807,-0.1757,-0.1957,-0.1836,-0.2197,-0.1884,-0.1802,-0.1788,-0.1803,-0.1749,-0.1754,-0.1757,-0.176,-0.1762,-0.1753,-0.1754,-0.1753,-0.1736,-0.176,-0.1721,-0.1698,-0.1735,-0.1726,-0.1733,-0.1773,-0.1735,-0.1741,-0.1547,-0.145,-0.14,-0.1532,-0.153,-0.1554,-0.1582,-0.1474,-0.138,-0.1229,-0.1231,-0.1232,-0.1234,-0.1235,0,-0.1716,-0.1698,-0.1682,-0.1633,-0.156,-0.1617,-0.159,-0.1533,-0.1476,-0.1499,-0.148,-0.1334,-0.124,-0.1237,-0.1078,-0.1039,-0.1108,-0.0999,-0.1125,-0.1172,-0.1215,-0.1095,-0.0746,-0.0745,-0.0744,-0.0742,0,0,-0.1716,-0.1638,-0.1587,-0.1423,-0.1391,-0.129,-0.1243,-0.1198,-0.1189,-0.1131,-0.1116,-0.1201,-0.1221,-0.0998,-0.0929,-0.0816,-0.0996,-0.0772,-0.1165,-0.1361,-0.1403,-0.1515,-0.1379,0,0,0,0,0]},{"header":{"parameterUnit":"m.s-1","parameterCategory":2,"la1":30.2991,"la2":30.254,"lo1":-89.0895,"lo2":-89.0444,"dy":0.0017,"dx":0.0017,"nx":28,"ny":28,"refTime":"2025-08-22T21:00:00:Z","depth":"2","parameterNumber":3,"parameterNumberName":"V-component_of_CURRENTS"},"data":[0,0,0,0,0,0,0,0,0,0,0,0,0,0,0,0,0,0,0,0,0,0,0,0,0,0,0,0,0,0,0,0,0,0,0,0,0,0,0,0,0,0,0,0,0,0,0,0,0,0,0,0,0,0,0,0,0,0,-0.007,-0.007,0,-0.001,-0.0009,-0.0008,0.0019,0.0018,0.0018,0.0018,0.017,0.0174,0.0179,0,0,0,0,0,0,0,0,0,0,0,0,0,-0.0093,-0.0093,-0.007,-0.007,-0.0069,-0.001,-0.0009,-0.0008,0.0019,0.0018,0.0018,0.0018,0.0169,0.0174,0.0179,0,0,0,0,0,0,0,0,0,0,0,0,0,-0.0062,-0.0093,-0.007,-0.005,-0.0048,-0.001,-0.0009,-0.0008,0.0019,0.0018,0.0018,0.0018,0.0167,0.0173,0.018,0.0227,0,0,0.02,0.0202,0,0,0,0,0,0,0,0,-0.0064,-0.0061,-0.0054,-0.0052,-0.0049,-0.0005,0.0039,0.0075,0.0019,-0.0005,0.0018,0.0017,0.0119,0.013,0.0143,0.0234,0.0241,0.02,0.0204,0.0207,0.0209,0,0,0,0,0,0,0,-0.0066,-0.0063,-0.0044,-0.0053,-0.005,-0.002,-0.0017,0.0046,0.0062,-0.0003,-0.0001,0.0003,0.0121,0.0137,0.0147,0.0243,0.02,0.0206,0.021,0.0212,0.0395,0.0395,0,0,0,0,0,0,-0.008,-0.0065,-0.0046,-0.0043,-0.0059,-0.002,-0.0016,-0.0017,0.0059,0.0069,0.0003,0.0004,0.0126,0.014,0.0153,0.0205,0.0207,0.0213,0.0216,0.0394,0.0395,0.0396,0,0,0,0,0,0,-0.0081,-0.0079,-0.0049,-0.0054,-0.0048,-0.002,-0.0021,-0.0016,-0.0002,0.0062,0.0074,0.0011,0.0126,0.0144,0.0206,0.0211,0.0216,0.0222,0.0392,0.0394,0.0395,0.0315,0,0,0,0,0,0,-0.0082,-0.008,-0.0084,-0.0055,-0.0048,-0.0033,-0.0021,-0.0015,0.0,0.0002,0.0074,0.0087,0.0127,0.0196,0.0213,0.022,0.0227,0.0391,0.0393,0.0395,0.0316,0.0314,0.0311,0,0,0,0,0,-0.0083,-0.0088,-0.0084,-0.0082,-0.0055,-0.0033,-0.0027,-0.0006,0.0001,0.0005,0.0055,0.0085,0.022,0.0202,0.0221,0.0231,0.039,0.0393,0.0395,0.0318,0.0314,0.0311,0,0,0,0,0,0,-0.0096,-0.0085,-0.0081,-0.0081,-0.0063,-0.003,-0.0023,-0.0007,0.0035,0.004,0.0099,0.0116,0.0164,0.022,0.0199,0.0292,0.031,0.0316,0.0245,0.0243,0.024,0.0223,0.0232,0,0,0,0,0,-0.0102,-0.0107,-0.0086,-0.0087,-0.0079,-0.0051,-0.0039,-0.0025,0.0013,0.003,0.008,0.0141,0.019,0.0232,0.028,0.0344,0.0376,0.0365,0.0362,0.0359,0.036,0.0414,0.0415,0.0403,0.0403,0.0403,0,0,-0.0108,-0.0103,-0.0105,-0.0091,-0.0074,-0.0067,-0.0044,-0.0029,-0.002,0.0044,0.0079,0.0126,0.0201,0.0252,0.0282,0.0302,0.0376,0.0362,0.0358,0.0362,0.0416,0.0417,0.0418,0.0405,0.0404,0.0404,0,0,-0.0124,-0.0116,-0.0126,-0.0115,-0.0097,-0.0078,-0.0077,-0.0043,-0.0025,0.0017,0.0056,0.0106,0.0197,0.0242,0.028,0.0302,0.0346,0.0325,0.0316,0.0367,0.0368,0.0369,0.0385,0.0389,0.0341,0.0341,0.0341,0,-0.0131,-0.0143,-0.0123,-0.0128,-0.0124,-0.0087,-0.0093,-0.0065,-0.0016,0.0005,0.002,0.0137,0.0189,0.0255,0.0257,0.0292,0.0322,0.0313,0.036,0.0362,0.0364,0.0382,0.0386,0.0337,0.0338,0.0338,0.0339,0,-0.0154,-0.0163,-0.0165,-0.0165,-0.0154,-0.0151,-0.0118,-0.0097,-0.0067,-0.0034,0.0028,0.0101,0.0175,0.0198,0.0236,0.0288,0.0299,0.033,0.0356,0.036,0.0379,0.0385,0.0332,0.0334,0.0335,0.0336,0,0,-0.0179,-0.0184,-0.0187,-0.02,-0.0176,-0.0174,-0.0151,-0.0121,-0.0106,-0.0042,-0.0008,0.0075,0.012,0.0167,0.0224,0.0276,0.0301,0.0312,0.0316,0.0307,0.0393,0.0369,0.0374,0.0342,0.0344,0.0345,0.0389,0,-0.0206,-0.0238,-0.0224,-0.0247,-0.026,-0.0222,-0.0209,-0.0172,-0.0125,-0.0078,0.0009,0.0061,0.0109,0.0144,0.0204,0.0268,0.0319,0.0285,0.0411,0.0414,0.0375,0.0381,0.0378,0.0415,0.0395,0.0396,0.0397,0,-0.0237,-0.0258,-0.029,-0.0303,-0.0304,-0.0301,-0.0276,-0.0258,-0.0177,-0.0139,-0.0056,0.0015,0.0096,0.014,0.0261,0.0238,0.0314,0.0368,0.0372,0.0384,0.0403,0.0418,0.0428,0.0408,0.0407,0.0406,0.0405,0,-0.0283,-0.0306,-0.034,-0.0343,-0.0342,-0.034,-0.0328,-0.027,-0.0264,-0.0167,-0.0148,-0.0026,0.0021,0.0138,0.026,0.0262,0.0391,0.0408,0.0459,0.0457,0.0498,0.0497,0.0509,0.0509,0.0509,0.0509,0.0509,0,-0.0325,-0.0354,-0.0364,-0.0384,-0.0421,-0.0389,-0.0403,-0.0368,-0.0316,-0.0311,-0.0181,-0.015,0.0025,0.0128,0.0247,0.0362,0.0385,0.0452,0.0474,0.0467,0.0463,0.0501,0.05,0.0511,0.051,0.051,0.051,0,-0.0373,-0.0379,-0.0427,-0.044,-0.0447,-0.0471,-0.0479,-0.0484,-0.0425,-0.041,-0.0385,-0.0254,-0.0137,0.0041,0.0221,0.0318,0.045,0.0499,0.0461,0.0476,0.0478,0.0473,0.0529,0.0529,0.0529,0.0529,0.0528,0,-0.0404,-0.0432,-0.0482,-0.0521,-0.0529,-0.0559,-0.0581,-0.0542,-0.0545,-0.0481,-0.0478,-0.0355,-0.0253,-0.0007,0.0195,0.0398,0.0435,0.0504,0.0507,0.0468,0.0484,0.0479,0.0473,0.0524,0.0524,0.0524,0.0524,0,-0.0469,-0.0484,-0.0525,-0.0602,-0.0641,-0.0687,-0.0704,-0.0726,-0.0677,-0.0648,-0.0582,-0.049,-0.0262,-0.0034,0.0226,0.0347,0.0465,0.0501,0.0505,0.0507,0.0465,0.0479,0.0474,0.0522,0.0522,0.0522,0.0522,0.0523,-0.0519,-0.0568,-0.0622,-0.0685,-0.0741,-0.0786,-0.0809,-0.0812,-0.0806,-0.0732,-0.0654,-0.0484,-0.0275,0.0089,0.0265,0.0439,0.0435,0.0509,0.051,0.0511,0.0491,0.0449,0.0498,0.0498,0.0498,0.0498,0.0498,0,-0.0585,-0.0635,-0.0705,-0.0773,-0.083,-0.0839,-0.0876,-0.0869,-0.0849,-0.0746,-0.0643,-0.0397,-0.0139,0.0079,0.0346,0.0487,0.0503,0.051,0.0521,0.0521,0.0522,0.0503,0.0513,0.0513,0.0514,0.0514,0,0,-0.0627,-0.0704,-0.0729,-0.0823,-0.087,-0.0916,-0.0928,-0.0903,-0.0826,-0.072,-0.0573,-0.0379,-0.0111,0.0076,0.0261,0.0401,0.0422,0.041,0.0387,0.0379,0.0378,0.0515,0.0484,0,0,0,0,0]}],[{"header":{"parameterUnit":"m.s-1","parameterCategory":2,"la1":30.2991,"la2":30.254,"lo1":-89.0895,"lo2":-89.0444,"dy":0.0017,"dx":0.0017,"nx":28,"ny":28,"refTime":"2025-08-22T21:00:00:Z","depth":"4","parameterNumber":2,"parameterNumberName":"U-component_of_CURRENTS"},"data":[0,0,0,0,0,0,0,0,0,0,0,0,0,0,0,0,0,0,0,0,0,0,0,0,0,0,0,0,0,0,0,0,0,0,0,0,0,0,0,0,0,0,0,0,0,0,0,0,0,0,0,0,0,0,0,0,0,0,-0.1151,-0.1151,0,-0.1188,-0.1188,-0.1188,-0.121,-0.121,-0.1211,-0.1211,-0.1234,-0.1235,-0.1235,0,0,0,0,0,0,0,0,0,0,0,0,0,-0.1099,-0.1099,-0.1151,-0.1151,-0.1152,-0.1188,-0.1188,-0.1188,-0.121,-0.121,-0.1211,-0.1211,-0.1234,-0.1235,-0.1235,0,0,0,0,0,0,0,0,0,0,0,0,0,-0.1126,-0.11,-0.1151,-0.1168,-0.117,-0.1187,-0.1188,-0.1188,-0.121,-0.121,-0.1211,-0.1211,-0.1234,-0.1235,-0.1235,-0.1234,0,0,-0.1237,-0.1238,0,0,0,0,0,0,0,0,-0.1124,-0.1128,-0.1165,-0.1167,-0.1169,-0.1195,-0.1178,-0.1203,-0.121,-0.1194,-0.1211,-0.1211,-0.122,-0.1222,-0.1227,-0.1235,-0.1236,-0.1237,-0.1238,-0.1238,-0.1238,0,0,0,0,0,0,0,-0.1122,-0.1126,-0.1164,-0.1165,-0.1168,-0.1173,-0.1177,-0.1183,-0.1204,-0.1195,-0.1197,-0.1203,-0.1221,-0.1227,-0.1228,-0.1236,-0.1237,-0.1238,-0.1238,-0.1239,-0.1284,-0.1285,0,0,0,0,0,0,-0.112,-0.1125,-0.1163,-0.1166,-0.1148,-0.1174,-0.1179,-0.1186,-0.1204,-0.1208,-0.1202,-0.1204,-0.1225,-0.1227,-0.1229,-0.1272,-0.1238,-0.1239,-0.1239,-0.1283,-0.1284,-0.1285,0,0,0,0,0,0,-0.1118,-0.1123,-0.1162,-0.1146,-0.1152,-0.1175,-0.1183,-0.1186,-0.121,-0.121,-0.1213,-0.1224,-0.1226,-0.1228,-0.1249,-0.1271,-0.1239,-0.124,-0.1282,-0.1284,-0.1285,-0.1329,0,0,0,0,0,0,-0.1117,-0.1122,-0.1135,-0.1146,-0.1153,-0.1182,-0.1183,-0.1187,-0.1212,-0.1214,-0.1229,-0.1231,-0.1226,-0.1248,-0.1249,-0.1271,-0.124,-0.1281,-0.1283,-0.1284,-0.1327,-0.1332,-0.1336,0,0,0,0,0,-0.1115,-0.1128,-0.1136,-0.1141,-0.1167,-0.1183,-0.1187,-0.1203,-0.1213,-0.1225,-0.1236,-0.1231,-0.1258,-0.1249,-0.1251,-0.1273,-0.1281,-0.1282,-0.1284,-0.1325,-0.1331,-0.1336,0,0,0,0,0,0,-0.111,-0.1132,-0.114,-0.116,-0.1176,-0.1187,-0.1203,-0.1214,-0.1234,-0.1241,-0.1241,-0.1243,-0.127,-0.1264,-0.1254,-0.129,-0.1269,-0.1271,-0.1299,-0.1305,-0.1309,-0.1308,-0.1241,0,0,0,0,0,-0.1116,-0.1133,-0.115,-0.1167,-0.1177,-0.1194,-0.1207,-0.1219,-0.1233,-0.1243,-0.1255,-0.1266,-0.1275,-0.1285,-0.1291,-0.1311,-0.1303,-0.1327,-0.1332,-0.1336,-0.1336,-0.1348,-0.1354,-0.1291,-0.1291,-0.1291,0,0,-0.1119,-0.1133,-0.1144,-0.1168,-0.1183,-0.1201,-0.1203,-0.1227,-0.1249,-0.1241,-0.1279,-0.1284,-0.1284,-0.1307,-0.1319,-0.1308,-0.1348,-0.1338,-0.1341,-0.1339,-0.135,-0.1357,-0.1362,-0.1292,-0.1292,-0.1292,0,0,-0.1125,-0.1148,-0.1162,-0.1179,-0.1205,-0.1217,-0.1229,-0.1253,-0.1273,-0.1302,-0.1304,-0.1324,-0.1342,-0.1347,-0.135,-0.1384,-0.1372,-0.139,-0.1415,-0.1428,-0.1433,-0.1437,-0.1432,-0.1435,-0.1393,-0.1393,-0.1393,0,-0.1129,-0.1148,-0.1168,-0.1186,-0.1204,-0.1227,-0.1246,-0.1269,-0.13,-0.1319,-0.132,-0.1359,-0.1359,-0.1386,-0.1396,-0.1396,-0.1394,-0.1395,-0.1434,-0.1438,-0.1442,-0.1435,-0.1438,-0.1396,-0.1395,-0.1395,-0.1395,0,-0.1137,-0.1163,-0.1174,-0.1206,-0.1228,-0.125,-0.1281,-0.1313,-0.134,-0.1359,-0.1401,-0.1407,-0.1426,-0.1434,-0.1425,-0.1457,-0.1444,-0.1438,-0.142,-0.1451,-0.1441,-0.1444,-0.1399,-0.1398,-0.1397,-0.1397,0,0,-0.1115,-0.117,-0.1175,-0.1198,-0.1243,-0.126,-0.1305,-0.1346,-0.1378,-0.1413,-0.1452,-0.1472,-0.148,-0.1483,-0.1484,-0.1495,-0.1518,-0.1481,-0.1481,-0.1475,-0.1536,-0.1449,-0.1444,-0.1524,-0.1525,-0.1525,-0.1517,0,-0.1115,-0.1152,-0.1182,-0.1223,-0.1245,-0.1289,-0.1327,-0.137,-0.1409,-0.1453,-0.1477,-0.1508,-0.1499,-0.1512,-0.1525,-0.1521,-0.1528,-0.152,-0.1506,-0.1505,-0.1425,-0.1445,-0.1528,-0.1519,-0.1519,-0.152,-0.152,0,-0.1106,-0.1136,-0.1177,-0.1238,-0.1252,-0.1285,-0.1353,-0.1388,-0.1453,-0.1484,-0.1525,-0.1543,-0.1572,-0.1558,-0.1572,-0.1569,-0.1554,-0.1548,-0.1548,-0.1452,-0.1424,-0.1482,-0.1525,-0.1525,-0.1524,-0.1524,-0.1524,0,-0.1071,-0.113,-0.1166,-0.1187,-0.1258,-0.1293,-0.1333,-0.1399,-0.1435,-0.1506,-0.1536,-0.1576,-0.1597,-0.1599,-0.1586,-0.1584,-0.1591,-0.1585,-0.1493,-0.1486,-0.1548,-0.1543,-0.159,-0.159,-0.159,-0.159,-0.159,0,-0.1048,-0.1077,-0.1158,-0.1175,-0.1219,-0.1279,-0.1332,-0.1379,-0.145,-0.1483,-0.1545,-0.1571,-0.161,-0.1619,-0.1601,-0.1549,-0.1602,-0.1495,-0.148,-0.1565,-0.1563,-0.1549,-0.1544,-0.159,-0.159,-0.159,-0.159,0,-0.0996,-0.1051,-0.1094,-0.1177,-0.1203,-0.1234,-0.1321,-0.135,-0.1431,-0.1478,-0.1502,-0.1575,-0.1584,-0.1602,-0.1603,-0.1554,-0.1522,-0.149,-0.1573,-0.1564,-0.1405,-0.1403,-0.1386,-0.1383,-0.138,-0.1378,-0.1376,0,-0.0968,-0.0987,-0.1078,-0.1102,-0.1141,-0.12,-0.1231,-0.1324,-0.1351,-0.1462,-0.1464,-0.1523,-0.1554,-0.1489,-0.1516,-0.1479,-0.1461,-0.1434,-0.1423,-0.1397,-0.1385,-0.1387,-0.1389,-0.1372,-0.1371,-0.137,-0.137,0,-0.0907,-0.0951,-0.0989,-0.1034,-0.1076,-0.1116,-0.117,-0.1188,-0.1286,-0.1374,-0.1402,-0.1419,-0.143,-0.1431,-0.1412,-0.1385,-0.1448,-0.1406,-0.1411,-0.1401,-0.138,-0.1371,-0.1376,-0.1361,-0.1362,-0.1363,-0.1363,0,-0.0859,-0.0869,-0.092,-0.095,-0.0997,-0.1011,-0.1061,-0.1098,-0.1145,-0.1273,-0.1277,-0.1347,-0.1419,-0.138,-0.1361,-0.1331,-0.1311,-0.1267,-0.1279,-0.1289,-0.126,-0.122,-0.1136,0,0,0,0,0,-0.0802,-0.0801,-0.0825,-0.0856,-0.0898,-0.0925,-0.1001,-0.1056,-0.1159,-0.1147,-0.1215,-0.1225,-0.1232,-0.1265,-0.1212,-0.1296,-0.13,-0.1228,-0.1252,-0.131,-0.1321,-0.1295,0,0,0,0,0,0,-0.0763,-0.0782,-0.0792,-0.0762,-0.0767,-0.0801,-0.0853,-0.093,-0.0934,-0.105,-0.1057,-0.1146,-0.1159,-0.124,-0.1185,-0.1191,-0.1181,-0.1273,-0.1269,-0.1304,-0.1314,-0.1322,-0.1299,0,0,0,0,0]},{"header":{"parameterUnit":"m.s-1","parameterCategory":2,"la1":30.2991,"la2":30.254,"lo1":-89.0895,"lo2":-89.0444,"dy":0.0017,"dx":0.0017,"nx":28,"ny":28,"refTime":"2025-08-22T21:00:00:Z","depth":"4","parameterNumber":3,"parameterNumberName":"V-component_of_CURRENTS"},"data":[0,0,0,0,0,0,0,0,0,0,0,0,0,0,0,0,0,0,0,0,0,0,0,0,0,0,0,0,0,0,0,0,0,0,0,0,0,0,0,0,0,0,0,0,0,0,0,0,0,0,0,0,0,0,0,0,0,0,-0.0069,-0.0068,0,-0.0046,-0.0046,-0.0045,-0.0028,-0.0028,-0.0028,-0.0027,0.0008,0.0009,0.001,0,0,0,0,0,0,0,0,0,0,0,0,0,-0.0072,-0.0073,-0.0069,-0.0068,-0.0068,-0.0046,-0.0046,-0.0045,-0.0028,-0.0028,-0.0028,-0.0027,0.0008,0.0009,0.001,0,0,0,0,0,0,0,0,0,0,0,0,0,-0.0062,-0.0073,-0.0069,-0.0057,-0.0055,-0.0046,-0.0046,-0.0045,-0.0028,-0.0028,-0.0028,-0.0027,0.0008,0.0009,0.001,0.0012,0,0,0.0014,0.0014,0,0,0,0,0,0,0,0,-0.0063,-0.0062,-0.0059,-0.0058,-0.0056,-0.004,-0.0034,-0.0025,-0.0028,-0.0038,-0.0027,-0.0027,-0.0007,-0.0004,-0.0001,0.0014,0.0016,0.0014,0.0015,0.0015,0.0015,0,0,0,0,0,0,0,-0.0064,-0.0063,-0.006,-0.0058,-0.0057,-0.0044,-0.0043,-0.0032,-0.0024,-0.0038,-0.0036,-0.0034,-0.0006,-0.0002,0.0,0.0016,0.0014,0.0015,0.0016,0.0016,0.0036,0.0036,0,0,0,0,0,0,-0.0068,-0.0064,-0.006,-0.0059,-0.0059,-0.0044,-0.0043,-0.0045,-0.0024,-0.0021,-0.0034,-0.0033,-0.0004,-0.0001,0.0002,0.0009,0.0015,0.0016,0.0017,0.0037,0.0036,0.0036,0,0,0,0,0,0,-0.0069,-0.0068,-0.0061,-0.0061,-0.0059,-0.0045,-0.0047,-0.0045,-0.004,-0.0022,-0.0018,-0.0032,-0.0004,-0.0,0.0009,0.001,0.0017,0.0018,0.0037,0.0036,0.0036,0.0022,0,0,0,0,0,0,-0.0069,-0.0069,-0.0073,-0.0061,-0.0059,-0.0059,-0.0048,-0.0045,-0.0039,-0.0038,-0.0019,-0.0015,-0.0003,0.0008,0.0011,0.0012,0.0019,0.0037,0.0037,0.0036,0.0022,0.0021,0.002,0,0,0,0,0,-0.0069,-0.0075,-0.0073,-0.0072,-0.0065,-0.0059,-0.0057,-0.0046,-0.0039,-0.004,-0.0027,-0.0016,0.0008,0.0008,0.0012,0.0014,0.0037,0.0037,0.0036,0.0023,0.0021,0.002,0,0,0,0,0,0,-0.0076,-0.0074,-0.0071,-0.0075,-0.007,-0.0057,-0.0056,-0.0048,-0.0038,-0.0036,-0.0018,-0.0014,-0.0005,0.0004,0.0005,0.0018,0.0024,0.0024,0.0013,0.0011,0.001,-0.0,0.002,0,0,0,0,0,-0.0081,-0.0087,-0.0079,-0.0083,-0.0081,-0.0069,-0.0065,-0.0059,-0.0048,-0.0044,-0.003,-0.0016,-0.0004,0.0003,0.0013,0.0021,0.004,0.0024,0.0023,0.0021,0.0015,0.0054,0.0056,0.0035,0.0035,0.0035,0,0,-0.0085,-0.0084,-0.0088,-0.0085,-0.008,-0.0085,-0.0066,-0.0064,-0.0066,-0.0041,-0.004,-0.0021,-0.0004,0.0004,0.0009,0.0013,0.0036,0.0021,0.002,0.0014,0.0054,0.0056,0.0058,0.0034,0.0035,0.0035,0,0,-0.01,-0.0096,-0.0108,-0.0106,-0.0102,-0.0095,-0.0096,-0.0084,-0.0077,-0.0073,-0.0054,-0.0034,-0.0022,-0.0003,0.0006,0.0003,0.0027,0.0005,-0.0008,0.003,0.0032,0.0035,0.0059,0.0063,0.0006,0.0005,0.0005,0,-0.0106,-0.0122,-0.011,-0.0121,-0.0124,-0.0102,-0.0117,-0.0106,-0.0093,-0.0087,-0.0077,-0.0044,-0.0025,-0.0007,-0.0008,0.0001,0.0021,-0.0002,0.0029,0.0032,0.0035,0.0059,0.0064,0.0005,0.0005,0.0005,0.0005,0,-0.0131,-0.0145,-0.015,-0.0161,-0.016,-0.0167,-0.0154,-0.0149,-0.0136,-0.0122,-0.01,-0.0067,-0.0048,-0.0035,-0.0023,0.0002,0.0009,0.0024,0.0035,0.0036,0.0061,0.0067,0.0004,0.0004,0.0004,0.0004,0,0,-0.0146,-0.0166,-0.017,-0.0187,-0.0184,-0.019,-0.0189,-0.0184,-0.0186,-0.0154,-0.0148,-0.0109,-0.0082,-0.007,-0.0041,-0.0006,0.0032,0.0012,0.0015,0.0038,0.0107,0.0094,0.0099,0.0055,0.0056,0.0057,0.0117,0,-0.0173,-0.021,-0.0208,-0.0242,-0.0261,-0.0244,-0.025,-0.0238,-0.0218,-0.0205,-0.0151,-0.0134,-0.0098,-0.0085,-0.0042,0.0011,0.0046,0.0014,0.0101,0.0103,0.0093,0.0105,0.006,0.0121,0.0123,0.0124,0.0124,0,-0.02,-0.0225,-0.0265,-0.0294,-0.03,-0.0312,-0.0317,-0.0318,-0.0284,-0.0267,-0.0225,-0.0186,-0.0129,-0.0099,0.0004,-0.0018,0.0038,0.0085,0.0089,0.0084,0.01,0.0121,0.0135,0.0134,0.0133,0.0133,0.0132,0,-0.0226,-0.0264,-0.0301,-0.0311,-0.0335,-0.0347,-0.0353,-0.0336,-0.034,-0.0301,-0.0294,-0.0218,-0.0182,-0.0094,-0.0002,0.0006,0.0107,0.0133,0.0176,0.0175,0.0176,0.0173,0.0205,0.0205,0.0205,0.0204,0.0204,0,-0.0256,-0.0287,-0.0319,-0.0341,-0.0386,-0.0382,-0.0413,-0.0405,-0.0391,-0.0397,-0.0326,-0.0306,-0.0177,-0.0106,-0.0015,0.009,0.0101,0.0172,0.0192,0.0167,0.0162,0.018,0.0176,0.0207,0.0206,0.0206,0.0205,0,-0.0276,-0.0298,-0.0347,-0.0385,-0.0401,-0.043,-0.0462,-0.0479,-0.0458,-0.0461,-0.045,-0.0365,-0.026,-0.0144,-0.0003,0.0066,0.0168,0.0199,0.0147,0.0163,0.0217,0.0212,0.0268,0.0268,0.0269,0.0269,0.0269,0,-0.029,-0.0318,-0.0381,-0.0419,-0.0439,-0.0482,-0.0512,-0.0511,-0.0524,-0.0497,-0.0497,-0.0404,-0.0334,-0.0144,-0.0021,0.0148,0.0172,0.0216,0.0238,0.0211,0.0225,0.022,0.0215,0.0269,0.0269,0.0269,0.0269,0,-0.0317,-0.0339,-0.0379,-0.0456,-0.0503,-0.0554,-0.059,-0.0605,-0.0599,-0.0586,-0.0523,-0.0419,-0.0302,-0.0141,-0.0022,0.01,0.0185,0.0217,0.0219,0.024,0.0212,0.0225,0.022,0.0269,0.0269,0.0269,0.0269,0,-0.0331,-0.0366,-0.0422,-0.0486,-0.0552,-0.0604,-0.0622,-0.0626,-0.063,-0.0589,-0.057,-0.0436,-0.0351,-0.0168,-0.0059,0.0059,0.0106,0.0144,0.015,0.0152,0.01,0.0046,0.0069,0,0,0,0,0,-0.0341,-0.0384,-0.0451,-0.0522,-0.0587,-0.0622,-0.0666,-0.0673,-0.0668,-0.0626,-0.0594,-0.0481,-0.0291,-0.0204,-0.0083,-0.0056,0.0114,0.0087,0.0158,0.027,0.027,0.0228,0,0,0,0,0,0,-0.0352,-0.0411,-0.0449,-0.0535,-0.0587,-0.0653,-0.0683,-0.0682,-0.0647,-0.0621,-0.0512,-0.0456,-0.0263,-0.0353,-0.0079,-0.0045,0.0015,0.0179,0.0181,0.0271,0.027,0.027,0.0227,0,0,0,0,0]}]]